Temp
21 21 22 23 22 23 25 24 26 24 23 23 23 21 19 17 17 17 15 14 12 13 15 16 17 18 18 18 18 18 18 18 18 18 18 18 18 17 18 18 18 18 17 17 17 16 15 15 15
20 22 23 23 22 23 23 24 23 22 22 23 21 21 19 15 16 15 13 12 12 13 14 15 16 17 17 18 18 18 18 18 18 18 18 18 17 18 17 18 18 18 17 17 16 15 15 15 15
20 22 22 24 24 21 23 23 22 23 23 21 19 17 17 14 15 14 13 13 13 13 13 14 15 16 17 17 18 18 18 18 18 18 18 18 18 18 18 17 18 18 17 16 16 16 15 15 15
22 24 23 23 23 22 22 22 22 23 23 22 19 16 14 13 14 14 14 13 12 12 13 13 13 14 16 16 16 17 17 17 17 18 18 17 17 18 18 17 17 17 17 16 16 15 15 14 14
22 23 23 25 23 23 22 22 22 22 21 20 21 16 14 13 15 14 14 13 12 12 12 13 13 13 13 15 15 15 16 17 17 17 17 17 17 17 18 17 17 17 17 16 15 15 14 14 14
22 23 23 24 22 22 22 21 21 22 21 18 18 18 15 16 14 14 14 13 12 11 12 12 13 12 13 13 14 15 15 16 16 17 17 17 17 17 17 17 17 16 17 16 15 14 14 14 14
23 23 22 24 22 22 21 21 19 19 20 17 17 18 16 15 14 14 14 14 12 11 12 12 12 13 13 12 14 14 15 15 16 16 17 17 17 17 17 17 17 16 17 15 15 14 14 14 15
22 23 23 22 22 21 19 20 19 18 18 19 17 16 16 14 14 14 14 13 12 11 10 11 12 12 12 12 12 13 14 15 15 16 16 16 17 17 17 17 17 16 16 16 15 15 14 14 15
23 22 22 21 21 20 20 19 19 18 18 17 17 16 15 15 14 14 13 13 12 11 10 10 11 11 12 12 12 12 13 14 15 16 16 16 17 17 17 17 16 16 16 16 15 15 14 15 15
20 21 19 19 19 19 19 18 18 18 18 18 17 17 15 14 14 13 12 11 11 10 10 9 9 10 12 12 12 12 12 14 13 15 15 16 16 17 18 17 16 15 15 15 15 15 15 15 14
20 19 19 18 17 18 19 18 18 17 18 16 15 14 14 14 14 13 12 11 10 10 9 8 8 8 10 12 12 12 12 13 13 13 15 15 16 17 17 17 16 15 15 14 14 14 14 14 14
18 18 19 18 17 18 17 17 17 17 16 15 15 14 13 13 13 12 12 11 10 9 9 8 8 8 8 10 11 12 12 12 12 13 14 15 15 17 17 16 15 15 14 14 13 13 15 15 15
17 17 18 17 17 17 17 16 17 15 16 15 15 14 14 13 13 12 12 11 10 9 9 8 7 7 7 9 9 10 11 12 12 12 12 13 15 15 16 15 15 15 14 14 14 14 14 15 15
18 18 17 17 17 17 15 16 16 16 16 15 15 14 14 13 13 12 11 10 10 9 9 8 7 7 7 7 8 9 9 10 11 12 12 13 14 14 15 15 15 15 15 14 15 15 15 15 15
18 18 17 17 17 16 15 15 15 17 16 15 15 15 14 14 13 13 11 10 9 9 8 8 7 7 7 7 7 8 8 9 10 11 13 13 14 15 15 15 14 14 14 14 14 15 15 15 15
18 18 18 17 16 15 16 17 17 16 16 15 15 15 15 14 14 13 11 10 9 9 9 8 7 7 7 6 7 7 9 9 10 11 12 13 14 14 15 16 15 14 14 14 14 14 14 14 14
17 17 18 17 16 16 16 15 18 16 16 14 14 15 16 15 14 13 12 10 10 9 9 8 7 7 6 6 7 7 8 8 9 10 11 13 13 14 15 15 15 15 14 14 14 14 14 14 14
18 18 18 17 16 15 14 15 18 18 15 14 15 15 16 15 15 13 11 10 10 9 9 8 7 6 6 6 6 7 7 8 8 10 11 13 14 15 15 15 15 15 14 14 14 14 14 14 14
17 17 17 18 16 14 15 16 17 17 17 16 15 15 15 16 13 13 12 11 10 9 9 8 7 6 5 5 4 5 6 8 7 8 11 11 13 14 14 16 16 15 15 14 14 14 14 14 15
16 17 15 16 15 14 14 14 15 17 17 17 16 14 14 13 15 14 12 11 10 9 8 7 6 5 5 4 4 4 5 6 6 8 8 9 12 13 14 14 15 15 15 15 15 15 14 15 15
15 15 13 13 13 14 13 14 16 17 16 16 15 15 15 15 14 13 12 11 10 9 7 7 6 5 4 4 4 4 5 5 7 8 8 8 10 13 13 14 15 14 14 14 15 15 14 14 14
15 13 13 13 12 13 16 12 17 15 15 15 15 14 15 14 14 13 12 11 9 8 7 6 5 5 4 4 4 4 3 3 4 5 6 6 8 11 12 13 13 14 14 14 14 15 14 14 14
12 12 12 13 12 12 15 12 18 17 17 16 15 15 15 14 13 12 12 10 9 8 6 6 5 5 4 4 3 3 3 4 4 6 6 6 7 10 12 12 13 13 14 14 15 14 14 14 14
11 12 12 13 12 9 14 12 16 17 18 17 16 15 14 14 13 13 11 10 9 8 6 5 5 5 4 3 3 3 3 4 5 5 5 6 6 8 10 11 12 13 13 14 14 15 15 15 15
11 12 9 11 9 11 13 11 14 19 17 17 16 16 15 14 13 11 11 10 9 7 6 5 5 4 3 3 2 3 3 3 4 4 5 5 5 6 8 9 11 12 13 13 13 14 14 15 14
12 11 10 13 12 11 11 12 17 16 16 16 16 15 15 13 12 12 11 10 8 7 6 5 5 4 3 2 2 2 3 3 3 4 4 4 4 6 6 8 9 11 12 13 13 13 13 13 14
12 11 11 8 4 8 13 16 18 17 17 15 14 15 14 14 12 12 10 10 8 7 6 5 5 4 3 2 2 2 2 2 3 3 3 4 4 5 6 7 8 9 11 12 13 13 13 14 13
10 11 10 8 11 11 12 14 14 16 16 15 15 13 14 14 13 11 10 9 7 6 5 5 4 4 3 2 2 2 2 2 2 3 3 3 4 4 6 6 9 9 10 12 12 13 12 12 13
9 9 11 11 10 10 9 12 16 19 18 17 16 15 13 11 10 9 9 8 7 6 5 4 4 3 3 2 2 2 2 2 2 2 2 3 3 4 5 7 8 8 9 10 11 12 12 12 12
9 11 12 9 10 8 8 10 14 13 13 14 14 14 12 11 10 8 9 8 7 6 5 4 4 3 2 2 2 2 2 2 1 2 2 2 3 4 4 6 7 8 9 10 11 12 11 11 11
Height
786 787 787 787 805 796 795 802 789 797 800 799 797 803 814 822 827 833 828 827 824 818 813 810 808 808 809 810 812 811 812 813 815 816 817 819 821 823 823 825 826 828 829 831 831 831 832 833 835
787 788 787 784 806 807 808 795 803 804 803 799 801 807 815 829 829 831 829 828 825 820 816 810 809 808 808 810 810 811 812 814 815 816 817 819 821 823 825 826 827 828 830 832 832 834 834 834 836
788 788 790 790 794 816 812 803 807 800 801 805 811 816 823 833 831 833 832 829 825 821 817 812 809 808 808 804 809 809 810 812 814 816 817 819 820 822 824 827 828 830 831 833 834 835 836 838 838
789 787 785 800 804 806 807 807 805 801 800 804 811 823 831 833 833 833 831 828 825 821 818 814 810 807 808 806 808 810 808 810 813 815 816 819 820 822 825 827 829 830 832 834 836 837 837 839 840
789 785 795 794 805 805 807 809 806 807 808 812 809 824 830 833 833 832 830 829 826 822 818 815 813 810 809 809 802 805 813 810 813 815 817 819 820 821 823 827 829 831 832 835 837 838 840 841 843
792 786 799 802 805 806 808 812 810 808 808 819 819 819 828 830 830 830 829 828 826 822 820 817 815 812 810 809 809 809 808 809 815 815 817 819 820 822 823 825 828 830 830 835 837 838 841 842 843
793 795 804 799 805 810 813 812 819 819 815 823 824 823 825 830 830 830 829 828 826 823 820 818 816 815 812 809 809 808 806 809 815 815 817 818 820 821 823 825 827 829 831 834 836 838 841 843 844
792 793 800 806 810 815 818 817 819 822 824 822 825 829 828 831 830 829 828 827 826 824 821 818 817 817 811 811 809 809 806 810 812 814 815 819 819 821 821 825 826 828 830 833 837 838 840 843 844
790 802 807 813 812 819 816 821 819 821 822 822 827 829 831 831 829 828 828 826 826 824 823 818 815 814 815 812 809 811 808 810 810 813 815 816 818 819 820 822 825 828 830 834 838 839 840 843 845
800 805 817 819 820 821 818 822 823 822 818 820 824 825 828 829 828 828 827 826 825 823 823 819 817 814 813 811 810 811 811 809 810 810 812 815 816 818 818 820 824 827 830 832 836 839 842 844 845
806 816 819 822 825 822 821 820 821 823 821 825 829 829 829 828 829 827 826 826 825 823 822 820 817 814 812 810 810 812 809 809 810 810 810 812 815 816 816 818 822 825 828 830 833 837 842 844 846
819 819 820 825 827 824 823 823 823 823 824 826 827 829 829 828 828 827 826 824 823 822 820 818 816 814 813 812 811 810 809 809 808 807 807 807 812 815 814 816 819 823 826 830 833 837 839 845 847
820 823 823 827 828 826 825 825 824 824 821 825 827 828 826 826 826 826 825 823 822 820 820 817 815 813 811 810 809 807 807 806 807 805 806 805 810 812 814 814 817 821 825 830 833 835 838 845 848
820 821 824 826 825 824 828 824 823 818 819 823 823 824 823 823 823 823 823 822 821 819 817 816 814 811 811 807 806 804 805 804 803 803 804 807 807 810 813 813 815 819 823 828 831 834 839 843 847
820 823 825 824 824 825 826 826 822 815 818 821 819 818 819 819 819 820 822 822 821 818 816 813 811 810 808 806 805 802 802 801 800 797 796 799 803 801 807 811 814 816 822 827 831 835 839 842 845
821 823 825 826 825 826 826 818 811 813 816 818 815 814 815 815 816 818 819 820 819 818 817 814 811 809 805 804 801 801 799 798 795 793 790 789 794 796 803 805 810 815 820 825 830 833 837 842 844
822 829 826 828 827 827 825 824 809 809 813 816 814 811 810 812 812 814 817 818 817 816 814 812 810 808 804 801 798 797 795 795 793 790 785 781 788 793 799 801 805 813 817 822 827 832 835 839 842
827 827 825 828 828 829 831 822 806 802 808 812 811 808 807 808 809 812 816 817 816 814 813 811 809 806 802 799 796 794 793 792 789 786 780 778 784 790 796 799 803 810 817 821 825 830 835 838 842
828 828 831 822 826 834 822 817 808 803 804 807 806 805 805 804 806 809 812 813 814 813 811 810 808 805 803 798 794 792 790 788 787 787 782 778 781 787 793 796 799 808 813 819 823 828 832 836 840
835 829 836 829 828 833 825 819 810 802 802 803 805 808 807 806 804 806 808 810 811 811 810 808 807 805 803 799 795 794 791 788 786 786 784 778 774 784 790 797 801 806 812 818 821 826 829 834 837
838 839 843 847 836 825 830 817 802 800 801 802 803 803 804 803 804 806 808 809 809 809 808 807 805 805 802 799 797 793 791 789 787 785 785 782 781 786 790 796 801 806 812 816 819 823 826 830 834
841 849 846 843 847 843 825 847 802 802 802 801 800 802 802 802 802 804 806 808 809 809 808 807 804 803 802 799 796 794 794 794 796 792 789 788 786 788 790 796 801 806 810 813 816 820 824 827 831
848 851 851 845 847 846 829 848 796 797 797 799 798 799 800 801 803 804 806 808 809 809 809 807 805 803 802 799 796 796 794 793 793 790 792 792 791 789 791 795 800 804 807 811 815 818 822 826 829
851 850 851 845 848 875 834 846 807 798 791 794 795 796 798 799 802 803 804 808 809 809 809 808 805 804 802 801 798 797 796 793 789 794 795 794 792 792 793 795 798 801 803 809 811 816 819 823 826
850 851 872 862 871 863 839 854 814 786 790 791 793 794 795 798 800 801 803 806 808 809 809 807 806 804 802 801 800 799 797 797 794 793 794 795 796 794 796 796 797 800 802 805 809 814 818 821 824
851 854 869 863 862 859 847 840 802 791 791 792 792 793 795 798 799 800 802 805 807 808 809 808 806 804 803 802 800 800 799 796 795 795 795 797 797 794 796 794 796 799 800 803 807 810 814 819 823
852 857 858 877 907 885 833 809 789 790 791 795 795 793 796 796 799 800 802 804 806 807 809 809 807 805 804 802 801 799 798 797 797 797 796 798 798 795 796 796 798 797 798 801 805 808 813 817 819
860 858 862 876 869 867 838 822 818 797 795 795 796 797 795 796 798 800 801 803 806 807 808 808 806 806 804 803 802 801 799 799 798 797 799 800 799 798 797 797 795 797 798 801 804 807 811 814 816
866 866 859 859 864 874 878 833 799 788 787 790 794 797 799 799 801 801 801 803 806 807 807 809 807 806 804 804 803 802 801 799 798 799 800 799 799 797 795 796 797 799 799 801 803 805 808 811 814
859 850 848 867 868 878 874 847 799 801 799 796 796 796 800 801 800 802 803 803 805 807 808 808 809 806 804 802 802 802 802 802 803 802 801 800 798 798 797 798 799 799 800 801 804 807 808 809 814
Wind_Speed
6 7 5 4 1 2 4 6 4 10 7 8 12 8 9 6 4 2 14 15 29 28 28 21 12 9 9 9 8 8 9 9 9 8 8 8 9 11 11 14 16 15 14 12 13 13 14 14 14
3 3 5 4 2 3 3 6 10 8 7 9 10 4 8 4 4 6 9 28 26 23 26 23 12 9 10 12 11 10 10 9 9 9 9 8 9 10 11 15 17 15 15 13 12 12 13 14 14
5 4 3 2 3 5 3 8 8 4 6 9 4 7 4 3 6 6 15 20 22 21 23 24 18 10 13 12 15 13 12 11 10 9 8 9 8 9 12 15 17 14 16 13 13 14 12 14 15
6 5 4 2 8 8 7 8 6 5 7 9 6 6 5 2 3 8 14 16 20 19 19 20 21 19 11 12 14 13 11 10 10 11 10 9 9 10 12 15 16 16 13 13 14 13 13 13 14
5 4 3 1 6 4 7 6 4 5 5 11 8 5 5 2 11 14 15 15 18 19 17 18 19 19 20 12 3 2 6 6 7 8 9 10 9 11 14 16 16 16 12 13 14 13 12 12 12
3 2 3 1 7 5 5 7 7 7 6 9 7 6 4 7 17 16 14 13 17 19 19 16 15 18 17 19 4 7 4 1 6 6 8 8 10 11 14 17 16 17 16 16 15 14 12 11 13
4 3 5 4 6 5 5 6 9 7 7 8 7 6 6 14 16 15 13 11 14 19 19 18 16 14 14 14 6 1 8 5 6 5 6 8 9 11 14 17 18 19 18 18 16 15 12 10 10
4 2 3 3 5 5 5 6 4 8 4 3 5 5 3 13 16 13 12 11 13 14 18 18 16 15 14 12 13 6 2 7 5 8 8 9 9 10 13 17 20 21 19 17 15 14 12 10 11
3 3 4 4 5 4 6 5 5 4 5 5 2 4 4 12 14 13 14 13 14 15 16 18 19 15 13 12 10 11 5 8 10 9 11 12 12 9 11 17 22 22 19 21 16 15 13 12 12
4 2 6 6 6 5 3 4 4 4 4 3 6 6 10 11 12 12 14 15 16 17 17 17 17 16 14 14 12 9 12 8 8 9 9 14 10 11 12 17 22 22 24 23 16 14 13 12 12
6 4 5 6 6 6 3 3 1 5 4 7 4 6 8 9 10 11 12 13 15 15 15 16 17 16 14 12 13 9 10 12 12 14 11 12 12 13 15 17 23 26 27 25 22 17 13 11 10
5 6 6 2 3 4 4 5 5 2 2 4 3 4 6 5 7 9 11 13 15 16 16 17 17 13 14 11 11 10 11 12 14 13 19 15 18 15 16 19 25 27 23 24 19 20 15 12 10
8 5 4 3 3 2 5 7 2 7 5 5 3 5 5 4 5 6 7 10 13 15 16 17 20 15 15 14 11 12 12 13 16 14 14 20 14 15 16 20 26 29 24 24 24 20 18 14 12
4 5 4 1 3 4 4 7 3 6 5 5 6 7 2 3 3 5 6 8 10 13 15 16 17 17 16 15 12 13 14 14 17 19 16 20 22 22 17 21 27 28 29 26 24 22 20 16 13
3 2 5 5 2 3 4 4 6 3 4 7 7 7 5 5 3 4 3 6 9 12 13 15 15 18 18 17 13 15 13 14 17 20 19 19 27 21 23 23 27 31 29 27 26 23 19 15 16
3 1 2 4 4 3 4 1 6 7 5 8 8 6 6 6 3 4 3 5 8 11 12 13 15 16 17 16 14 14 13 12 18 16 22 21 33 31 28 26 28 29 30 28 27 21 20 18 16
5 2 5 2 2 3 3 7 4 8 6 7 8 7 5 5 7 6 1 4 7 10 12 14 14 14 17 15 15 13 11 11 14 15 16 21 32 35 30 27 27 30 29 27 25 24 21 20 16
2 3 3 6 2 5 9 12 6 4 8 8 7 7 5 5 2 7 0 4 7 9 10 11 14 15 16 16 16 9 7 11 13 15 14 14 34 32 26 25 27 26 25 24 24 23 21 18 13
4 1 6 5 5 5 7 9 8 5 2 6 7 5 5 4 9 6 5 3 5 7 9 10 13 14 14 16 18 16 16 12 15 16 14 13 26 28 24 21 19 24 26 26 23 21 22 16 14
7 4 5 3 3 3 8 14 12 6 3 1 4 6 6 7 3 7 8 2 2 5 7 9 10 11 12 14 11 12 13 10 14 16 12 17 16 20 19 22 21 20 21 24 23 23 21 16 16
2 3 3 4 8 8 8 7 7 5 4 5 5 3 5 3 2 2 3 1 1 5 6 7 9 9 10 12 10 12 8 11 13 15 15 15 12 10 15 15 18 20 21 24 26 23 24 18 18
3 6 5 5 6 3 4 5 6 8 8 7 6 4 2 1 2 3 3 1 4 4 6 7 7 8 8 10 9 11 9 7 9 14 17 14 10 6 8 11 14 17 19 19 24 27 25 21 19
2 5 6 4 4 4 2 1 4 6 6 7 6 4 4 2 1 3 3 2 3 4 6 6 7 7 8 9 9 8 8 9 9 13 14 12 8 7 3 7 11 14 15 16 19 24 22 19 18
3 3 6 2 1 3 1 2 4 4 3 4 5 6 5 3 1 2 6 2 2 2 5 5 6 6 8 8 8 7 8 8 12 10 12 14 10 8 5 3 8 9 14 20 13 15 20 21 17
3 2 3 5 4 4 3 2 9 2 5 3 3 1 2 3 1 3 3 4 3 2 4 5 5 5 6 7 7 8 9 7 8 9 10 12 10 8 6 2 2 13 10 15 22 14 14 16 17
3 1 3 4 2 5 4 5 5 5 6 3 2 2 1 4 3 2 4 4 3 1 2 3 4 4 6 6 6 7 7 8 8 8 8 8 10 6 6 6 1 5 12 13 16 19 15 15 15
2 0 2 4 2 2 4 6 3 1 2 4 5 3 5 3 3 3 6 5 3 1 2 2 3 4 5 7 6 7 7 8 7 7 6 7 9 7 5 3 2 1 7 14 15 19 21 15 11
1 1 2 2 2 4 5 5 5 3 5 6 5 5 3 3 2 2 4 8 5 1 2 1 2 3 4 6 7 7 8 7 7 7 7 6 5 6 5 4 5 4 2 12 15 16 13 10 9
2 1 2 1 1 4 2 6 4 2 2 3 3 3 4 5 4 3 4 8 6 2 3 1 2 3 4 6 7 7 8 8 7 5 4 4 5 7 5 4 3 4 3 5 8 10 11 11 9
2 2 4 3 3 1 2 7 2 5 5 4 4 1 4 3 2 2 2 6 7 6 2 2 2 3 4 7 7 8 8 7 4 4 4 3 2 3 3 1 2 3 4 6 7 9 8 11 9
Wind_Direction
3 337 293 267 269 219 228 87 355 33 19 3 52 52 94 52 31 1 326 338 351 359 3 354 324 247 232 219 214 203 185 175 171 171 172 171 179 170 162 151 131 129 124 118 115 115 112 117 121
27 278 248 255 253 224 60 43 54 34 33 330 59 67 40 76 41 342 356 342 348 3 7 12 353 276 237 227 216 218 199 182 179 182 176 174 179 178 175 153 135 137 127 126 121 120 115 116 127
357 286 271 231 279 41 45 46 34 52 81 38 97 49 30 24 26 359 334 341 347 8 9 13 18 344 259 230 224 214 206 196 189 192 188 180 179 176 170 158 147 145 130 131 125 124 115 119 127
314 212 256 263 65 55 31 47 355 348 116 52 126 81 96 142 333 344 346 354 347 1 13 13 13 24 334 260 238 228 207 203 208 203 197 193 184 173 175 167 156 152 143 137 134 127 122 128 131
238 260 251 239 92 95 77 20 324 350 50 45 337 123 121 243 22 4 357 1 356 2 6 9 13 15 12 7 329 207 236 193 211 214 209 200 195 179 174 175 165 160 160 144 137 131 126 132 134
268 235 271 22 99 98 95 14 320 7 38 39 25 331 107 76 17 359 359 7 356 1 7 7 7 8 11 6 123 202 228 206 243 223 216 209 207 189 180 179 176 167 167 153 141 134 135 137 143
276 283 22 18 90 153 60 351 30 352 357 46 340 317 113 25 6 356 356 359 4 0 2 7 3 349 351 5 354 177 196 207 258 243 243 226 208 212 198 193 185 178 169 157 148 143 140 139 145
288 269 189 45 17 81 63 323 56 36 62 354 6 30 0 0 351 354 359 6 9 5 1 3 11 352 347 347 354 337 187 245 259 264 249 249 230 215 215 206 193 180 171 167 159 149 140 143 141
294 271 70 47 1 61 80 345 110 159 270 99 108 89 21 351 347 356 358 359 5 5 5 351 3 8 354 348 356 332 314 236 241 248 255 253 245 234 221 208 196 192 179 167 160 153 152 145 139
7 13 42 26 33 17 74 337 357 305 305 159 172 109 27 348 345 359 358 357 358 355 355 348 350 357 358 354 350 334 311 275 261 254 245 250 248 229 235 208 194 184 169 159 164 163 157 150 146
359 56 100 57 21 354 10 239 75 324 293 60 2 349 353 337 344 357 355 353 347 347 344 349 343 350 347 349 342 321 323 304 291 268 256 243 242 241 213 197 188 180 175 162 166 163 163 151 152
112 48 27 32 21 315 355 330 304 89 11 52 4 0 301 336 343 350 347 351 348 346 344 342 341 345 336 333 326 316 301 306 301 303 258 246 241 230 209 196 186 181 172 174 172 169 158 171 184
80 98 78 75 274 305 327 269 289 283 137 149 220 270 286 330 343 343 341 345 342 342 342 344 340 346 330 337 321 310 302 295 282 290 281 251 260 233 211 193 188 186 181 175 173 167 174 184 178
99 100 94 211 300 253 301 309 101 200 128 222 214 247 269 306 350 310 347 335 336 335 339 341 343 343 338 332 327 313 306 304 298 285 295 236 219 227 219 202 190 192 184 181 180 178 181 181 183
128 158 172 209 358 286 318 239 229 139 153 260 257 230 196 239 217 268 300 313 324 330 336 342 343 338 347 343 331 318 306 303 300 303 291 247 217 208 223 204 193 188 190 187 180 182 180 183 183
218 225 294 97 312 122 284 103 165 150 218 258 268 245 199 221 198 235 250 298 314 325 336 341 345 344 345 342 330 322 312 310 315 306 291 251 223 211 219 200 194 189 190 191 185 181 185 195 190
224 345 22 144 98 324 262 297 160 174 212 263 275 266 219 211 211 176 129 305 318 323 332 341 346 345 345 340 337 327 319 322 330 326 311 230 215 210 207 199 193 199 189 190 192 187 189 183 190
15 19 5 316 87 354 291 261 282 231 181 237 273 276 256 238 215 98 77 304 306 317 330 339 342 345 353 345 345 350 343 332 353 345 349 215 203 199 199 194 192 196 188 175 177 187 194 193 194
345 28 283 333 81 332 278 297 290 96 298 262 250 272 279 267 127 163 189 233 305 326 337 344 344 348 355 353 354 355 352 349 359 357 9 41 196 190 192 199 195 185 185 181 184 182 184 186 196
309 307 14 299 58 317 293 296 283 174 214 282 327 316 330 342 324 162 159 195 287 327 349 349 341 348 352 349 359 346 348 346 357 3 14 13 104 173 177 200 181 177 185 180 176 180 178 186 188
97 346 33 291 312 248 276 271 189 180 198 196 221 251 259 289 279 345 94 209 327 355 347 347 346 353 349 352 355 357 39 17 10 3 359 15 46 149 164 169 180 191 192 185 183 189 186 180 193
323 14 317 307 7 310 28 292 217 167 203 194 187 187 11 320 227 212 148 61 351 349 340 349 354 359 353 353 2 19 29 32 358 9 356 356 32 92 158 184 183 190 193 199 192 192 195 188 187
63 346 312 328 321 353 234 296 246 149 235 162 144 143 229 191 237 321 91 81 301 326 347 359 351 7 2 358 6 12 13 24 17 19 359 5 31 67 149 188 197 217 199 202 196 199 196 190 183
332 267 233 241 318 12 0 61 269 172 129 136 154 167 169 195 42 204 138 198 227 336 360 355 347 3 7 354 0 8 6 7 27 21 6 4 20 46 77 226 214 217 219 211 184 212 200 198 192
238 307 326 358 13 227 84 8 253 138 151 169 130 151 119 104 289 48 155 161 106 6 355 346 347 3 15 358 1 360 11 16 35 19 11 357 351 38 44 64 187 215 217 221 207 206 192 205 187
27 353 145 225 286 275 102 239 256 87 99 140 184 218 226 234 120 144 105 119 129 305 31 340 352 2 9 11 19 1 9 18 30 14 11 353 340 359 9 53 46 211 211 198 202 199 205 209 201
293 324 14 96 48 36 247 276 283 77 213 172 206 174 265 72 82 64 100 139 126 157 356 42 337 2 10 24 27 10 11 19 15 9 14 357 339 350 354 40 34 175 207 197 185 186 192 196 205
333 192 69 356 29 315 301 290 250 281 254 188 215 214 68 61 89 128 120 137 141 252 312 16 345 8 21 33 31 18 4 16 23 22 1 350 341 354 351 359 50 28 185 206 210 202 199 210 223
148 192 226 53 87 170 296 277 319 16 140 196 139 84 45 9 22 41 100 120 139 178 290 20 340 358 15 37 40 30 22 18 16 4 344 344 6 350 355 3 31 5 81 148 168 208 203 190 168
326 286 194 137 244 297 144 272 309 0 22 8 327 29 85 10 4 34 50 141 168 168 195 278 102 337 22 34 29 34 37 33 19 10 1 352 41 4 353 17 55 48 66 112 129 136 153 162 165